Theta_e
312 312 312 311 311 311 311 311 311 311 311 311 311 312 312 312 312 312 313 313 313 313 314 314 315 315 316 318 318 318 319 319 319 319 319 319 319 319 320 321 323 324 325 326 328 328 329 331 331 331 332 332 332 332 333 334 334 334 333 332 331 330 330 329 328 328 327 326 326
312 312 312 312 312 312 312 312 312 312 312 312 312 312 312 312 312 312 313 313 313 313 314 314 314 315 316 317 317 318 318 318 318 319 319 319 320 320 320 320 321 321 323 324 324 326 327 329 329 330 330 331 331 331 332 334 334 333 332 331 330 330 329 328 328 327 327 326 325
312 312 312 312 312 312 312 311 312 312 312 312 312 311 311 311 311 312 312 313 313 313 313 313 313 314 315 316 317 317 317 318 318 318 319 320 320 320 320 320 320 321 322 322 324 324 325 326 327 328 328 329 329 330 330 332 332 331 330 330 330 329 328 327 327 327 327 325 325
311 311 311 311 312 312 312 312 312 312 312 312 312 311 311 310 311 311 311 312 312 312 312 312 313 314 315 316 316 317 317 317 318 318 318 319 320 320 321 321 321 321 322 322 323 324 325 325 326 327 328 328 328 328 329 330 330 330 329 330 329 328 327 327 327 327 326 325 324
310 310 311 311 311 312 312 312 312 312 312 312 311 310 310 310 310 310 311 311 311 312 313 313 314 314 315 315 316 317 317 317 317 317 317 318 319 320 320 321 321 321 322 322 323 324 325 325 325 326 327 327 328 328 329 330 330 329 328 327 326 326 326 325 324 323 322 321 319
309 310 310 310 310 310 311 311 311 312 311 311 310 310 310 310 311 311 311 311 312 313 314 313 313 314 314 315 316 316 317 317 317 317 317 318 319 319 320 320 321 322 322 322 322 324 324 324 325 326 326 327 327 328 329 330 329 328 326 322 321 321 321 320 319 317 317 316 314
308 308 308 309 308 308 309 310 310 310 310 310 310 310 310 311 311 311 311 312 312 312 313 313 313 314 314 315 315 315 316 317 317 317 317 317 318 318 319 320 320 320 321 321 322 322 323 323 325 325 325 326 327 327 328 329 327 325 322 318 316 316 316 316 315 314 314 313 311
308 307 307 307 307 307 307 308 308 308 309 310 310 310 311 311 311 311 311 311 311 312 312 313 313 313 314 314 314 315 315 316 316 316 317 317 318 318 318 319 319 319 320 321 322 322 323 324 325 325 325 325 324 324 326 326 325 321 318 315 313 313 313 314 313 313 312 311 310
308 308 307 306 306 306 306 306 307 307 308 309 310 310 310 310 310 310 311 311 311 312 312 313 313 313 314 314 314 314 315 315 315 315 316 316 316 317 317 317 318 318 319 320 321 321 322 324 324 324 323 321 320 321 321 322 320 318 315 312 311 310 310 311 312 311 311 310 309
309 308 308 307 307 306 306 306 307 307 308 308 308 309 309 309 310 310 311 311 312 312 312 313 313 313 314 314 314 314 314 315 315 315 315 315 315 316 316 316 317 317 317 318 319 321 322 321 320 320 319 319 319 319 318 318 316 314 311 310 309 308 308 308 309 309 309 308 307
309 309 309 308 308 307 307 307 307 307 308 308 308 308 309 309 309 310 310 311 311 311 311 312 312 312 312 312 312 312 312 313 313 313 313 313 313 313 313 314 315 315 316 316 317 318 319 318 317 316 316 316 316 316 316 314 313 311 309 308 307 306 306 306 306 306 306 305 304
308 309 308 308 308 307 308 308 308 308 308 307 308 308 309 309 309 309 310 309 310 310 310 310 310 311 311 310 310 310 310 310 310 311 311 310 310 310 311 311 312 313 314 315 314 315 315 315 315 314 314 313 313 313 313 312 311 309 307 306 306 305 304 304 304 303 303 302 302
308 308 308 307 307 307 307 308 308 308 308 308 308 308 308 308 308 308 308 308 309 308 308 308 308 308 308 308 308 307 308 308 308 308 308 307 308 307 308 309 310 310 311 312 312 313 313 313 313 313 312 311 311 310 310 310 309 307 306 305 304 303 302 302 302 302 302 301 300
307 307 307 307 307 307 307 307 307 308 307 308 308 308 307 307 307 307 307 308 307 307 306 306 306 306 306 305 305 305 305 305 305 305 305 305 305 305 306 306 307 308 308 309 309 310 311 311 311 310 309 309 308 308 308 308 307 306 305 304 302 302 300 300 300 300 300 300 298
307 307 307 307 307 307 306 306 307 307 307 307 307 306 306 306 306 306 306 306 306 306 306 305 305 304 304 304 303 303 303 303 303 303 303 303 303 303 304 304 305 305 306 306 307 307 308 308 308 308 307 306 305 305 305 305 304 304 304 302 301 300 299 299 299 299 299 298 297
306 306 306 306 306 306 306 306 306 306 306 306 306 306 305 305 305 305 305 305 305 305 305 304 304 303 303 303 302 302 302 302 302 302 302 302 302 302 303 303 303 304 304 304 304 304 304 305 305 305 304 304 303 302 302 302 302 302 301 301 300 299 299 299 298 298 298 298 297
306 306 306 306 306 306 306 306 306 305 305 305 305 305 305 305 305 305 304 304 304 304 303 303 303 302 302 302 302 302 302 301 301 301 301 301 301 302 302 302 302 302 303 302 302 302 302 302 302 302 302 301 301 301 300 300 300 300 299 299 299 299 299 298 298 298 298 298 297
306 306 305 306 306 306 305 305 304 304 304 304 304 304 304 304 303 303 303 303 303 302 302 302 302 302 301 301 301 301 301 300 300 300 300 300 300 300 300 300 300 301 301 301 301 300 300 300 300 300 300 299 299 299 298 298 298 298 298 298 298 298 298 298 298 298 297 297 297
306 305 305 305 305 305 304 303 303 303 303 303 302 303 303 303 303 302 302 302 302 302 301 301 301 301 301 301 301 300 300 300 299 299 299 299 299 299 299 299 299 299 299 299 299 299 299 299 298 298 298 298 298 298 297 297 297 297 297 297 297 297 297 297 297 297 297 296 296
305 305 305 305 304 303 302 302 302 302 302 302 302 301 301 302 302 301 301 301 301 301 301 300 300 300 300 300 300 299 299 299 298 298 298 298 298 298 298 298 298 298 298 298 298 298 297 297 297 297 297 297 297 297 297 297 296 296 296 296 296 297 297 297 297 297 296 296 295
305 305 305 304 303 302 302 302 302 302 302 301 301 301 301 301 301 301 300 300 300 301 300 300 299 299 299 299 298 298 298 299 298 298 298 298 298 298 298 298 298 298 297 297 297 297 297 297 297 296 296 296 296 296 295 295 295 295 295 295 295 295 295 296 296 296 295 295 294
304 304 303 302 302 301 301 302 302 302 302 301 300 300 300 300 300 300 300 300 300 300 300 299 299 299 299 299 298 298 298 298 298 298 297 297 297 298 298 298 298 297 297 297 297 296 296 296 296 296 296 296 296 295 295 294 294 294 294 294 294 294 294 294 294 294 294 294 294
302 302 302 302 301 301 301 301 302 301 301 300 299 299 299 300 299 300 299 300 299 299 299 299 299 298 298 298 298 297 297 297 297 297 297 296 296 296 297 297 297 297 297 297 297 297 297 296 296 296 295 295 295 295 294 294 294 294 293 293 293 293 294 294 294 293 293 293 293
301 301 301 301 301 301 301 301 301 301 300 299 299 299 299 299 299 299 299 299 299 299 298 298 298 298 298 298 297 297 297 296 296 296 296 296 296 296 296 296 296 296 296 296 297 297 296 296 296 296 295 295 295 295 295 294 294 294 293 293 293 293 293 294 294 294 294 293 293
301 301 301 301 301 301 301 300 300 299 299 298 298 298 298 298 298 298 298 299 298 298 298 298 298 297 297 297 297 297 297 297 296 296 296 296 296 296 296 296 296 296 296 296 296 296 297 297 296 296 296 295 295 295 295 295 294 294 294 293 293 293 293 293 294 294 294 294 294
301 301 301 301 300 300 300 299 299 298 298 298 298 298 298 298 298 298 298 298 298 298 298 298 297 297 297 297 297 297 297 297 297 297 297 296 296 296 296 296 296 296 296 296 296 296 296 296 296 296 295 295 295 294 294 294 294 294 294 294 294 293 293 293 294 294 294 295 295
301 301 300 300 300 300 300 299 299 298 298 297 297 297 297 297 298 298 298 298 298 298 298 298 298 297 298 297 297 297 297 297 297 297 297 297 296 296 296 296 296 296 296 296 297 297 297 296 296 296 295 295 295 294 294 293 294 294 294 294 294 293 293 293 293 293 294 294 295
300 300 300 300 299 299 299 299 298 298 297 297 296 296 297 297 297 297 297 297 297 297 298 298 298 298 298 298 297 297 297 297 297 297 297 297 297 296 296 296 296 296 297 297 297 297 297 296 296 295 295 294 294 294 294 293 293 293 294 293 293 293 293 293 293 293 293 293 293
299 299 299 298 298 298 298 298 297 297 297 296 296 296 296 296 296 297 297 297 297 297 297 297 298 298 298 298 298 298 298 298 298 298 297 297 297 297 296 296 296 296 297 297 297 297 296 296 296 295 295 294 294 294 293 293 293 293 293 293 293 293 293 293 292 292 293 292 293
299 299 298 298 298 297 297 297 297 296 296 296 296 296 296 296 296 296 296 297 297 297 297 297 298 298 298 297 298 298 298 298 298 297 297 297 296 296 297 297 297 297 297 297 297 296 296 296 295 295 294 294 294 294 293 293 293 293 293 293 293 293 293 293 293 293 293 293 293
299 298 298 297 297 297 296 296 296 296 296 296 296 296 296 296 296 296 296 297 297 297 298 298 298 297 297 298 298 298 297 297 297 297 297 297 297 297 297 297 297 296 297 297 296 296 296 295 295 294 294 294 294 293 293 293 293 293 292 292 292 293 292 292 292 293 293 293 293
298 298 298 297 297 296 296 296 296 296 296 296 296 296 296 296 296 296 297 297 297 297 298 298 297 297 297 298 298 298 298 297 297 297 297 297 296 297 296 296 296 296 296 296 296 296 295 295 294 294 293 293 293 293 293 293 292 292 292 291 291 292 292 292 292 293 293 293 293
298 297 297 296 296 296 296 295 296 296 296 296 296 296 296 296 296 296 297 297 297 297 297 297 297 297 297 297 297 297 297 297 297 297 297 297 296 296 296 296 296 296 296 296 296 295 295 294 293 293 293 292 292 292 292 292 291 291 290 290 290 290 291 291 291 292 292 293 293
297 297 296 296 295 295 295 295 296 296 296 296 296 296 296 296 296 296 296 297 297 298 297 297 297 297 297 297 297 297 296 296 296 296 296 296 296 296 296 296 296 296 296 296 295 295 294 294 293 292 292 291 291 291 291 291 290 290 290 290 290 290 290 290 290 291 291 292 292
297 296 296 295 295 295 295 295 295 296 296 296 296 296 295 296 296 296 296 297 297 297 297 297 297 297 297 297 296 296 295 295 295 295 296 296 296 295 295 295 296 296 296 295 295 294 294 293 292 291 291 291 291 291 291 290 290 290 289 289 289 288 288 288 289 289 290 291 291
296 296 295 295 295 295 295 295 295 296 296 295 295 295 295 296 296 296 296 296 296 296 296 296 296 296 296 295 295 295 295 295 295 295 295 295 295 295 295 295 295 295 295 295 294 294 293 292 291 291 290 290 290 290 290 290 289 289 289 288 288 288 287 288 288 288 289 290 291
296 296 295 295 295 295 295 295 295 295 295 295 295 295 295 296 296 296 296 296 295 295 295 295 295 295 294 294 294 294 295 295 294 295 295 295 295 295 295 295 295 295 295 294 294 293 292 291 291 290 290 290 290 290 290 289 289 288 288 288 287 287 287 288 288 288 289 289 290
296 296 296 295 295 295 295 295 295 295 295 295 295 295 295 295 295 295 295 295 295 294 294 294 294 294 294 294 294 294 294 295 294 294 294 294 294 294 295 295 295 295 294 294 293 293 292 291 290 290 290 290 290 289 289 289 288 288 288 287 287 287 287 288 288 289 289 289 289
297 296 296 295 295 295 295 295 295 295 295 295 295 295 295 295 295 295 295 295 295 294 294 293 293 293 293 294 293 293 293 294 294 294 294 294 294 294 294 294 294 294 294 293 293 292 291 291 290 289 289 290 289 289 289 288 288 287 287 287 286 286 286 287 288 288 289 289 288
297 296 296 295 295 295 295 295 295 295 296 296 295 295 294 295 294 294 294 295 295 294 294 293 293 293 293 293 293 292 292 292 292 292 293 293 293 293 293 294 293 293 293 293 292 292 291 290 290 289 289 289 289 289 288 288 287 287 286 286 286 286 286 287 287 288 288 289 289
296 296 296 295 295 295 294 294 295 295 296 296 295 295 294 294 294 294 294 294 294 294 293 293 292 292 292 292 292 291 290 289 289 289 289 289 290 291 292 293 293 293 293 293 292 292 291 290 289 289 288 288 289 288 288 287 287 286 286 286 286 286 286 286 287 287 288 288 289
Wind_Speed
2 2 2 1 1 1 1 1 1 1 1 1 1 1 1 2 2 2 2 2 2 2 2 2 2 2 2 3 3 4 4 5 5 5 6 6 7 7 8 8 8 8 8 9 9 9 9 9 9 8 7 7 7 8 8 7 8 8 8 8 7 8 9 10 9 9 10 9 7
2 2 2 1 1 1 1 1 1 2 2 2 2 2 2 2 2 2 2 2 2 2 2 2 2 3 3 4 4 4 4 5 5 5 6 6 7 7 7 7 8 8 8 8 9 8 8 8 8 7 6 6 7 7 7 6 7 8 9 9 7 7 7 8 8 9 9 8 7
1 1 1 2 2 2 2 2 2 2 2 2 2 2 2 2 2 2 2 2 2 2 2 2 3 3 4 4 4 4 4 5 5 6 6 6 6 7 7 7 7 7 7 7 8 7 7 8 8 7 6 5 7 7 7 7 8 8 8 9 7 6 6 6 7 7 6 6 7
0 1 1 2 2 3 3 2 3 3 3 2 2 2 2 2 2 2 3 3 3 2 3 3 3 3 3 4 4 5 5 5 6 6 7 7 7 7 7 7 7 7 8 7 8 8 8 8 7 6 6 7 8 8 7 6 7 7 6 7 6 6 6 5 5 5 4 4 5
1 2 2 2 3 3 3 3 3 3 3 2 2 2 2 2 2 2 3 3 3 3 3 3 3 4 4 4 5 5 6 6 5 6 6 7 7 7 7 7 7 8 8 8 8 8 9 9 7 6 6 7 7 7 7 7 7 7 6 4 4 4 4 4 3 3 3 3 3
2 2 2 3 3 3 3 3 4 3 3 2 3 3 3 3 2 3 3 3 3 3 3 4 4 4 4 5 5 6 6 6 6 6 6 7 6 6 7 8 8 8 7 8 9 9 9 9 6 5 5 6 7 7 8 8 8 7 5 3 2 2 2 3 2 3 3 4 5
2 3 3 3 3 3 3 4 3 3 3 3 4 4 4 3 3 4 4 3 3 3 3 3 4 4 4 5 5 6 6 6 6 6 6 6 6 7 7 8 8 8 8 8 9 9 9 9 6 5 5 4 5 6 7 7 6 5 4 3 2 1 2 3 3 3 4 6 7
2 2 3 3 3 3 3 4 3 3 3 3 4 4 4 4 4 4 4 3 3 3 3 3 3 4 4 5 5 5 6 6 6 5 5 6 6 7 7 7 8 8 8 8 8 8 8 7 5 5 4 4 3 4 6 6 6 5 5 4 3 2 2 3 3 4 5 8 8
2 2 2 2 2 3 3 3 3 3 3 3 3 3 3 4 4 3 3 3 3 3 3 3 4 4 5 5 5 5 5 5 5 5 5 5 6 6 6 6 7 7 7 7 7 8 8 5 3 3 3 3 3 3 4 5 6 6 5 4 4 3 3 3 4 5 6 7 8
2 2 2 2 2 2 2 2 2 3 3 3 3 3 2 2 3 3 3 3 3 3 3 3 4 4 4 4 4 4 4 4 4 4 5 4 5 5 5 5 5 6 6 5 6 6 5 3 2 2 2 2 3 4 4 5 6 6 5 4 4 4 5 4 4 5 6 6 7
2 2 2 2 2 2 2 3 2 2 2 2 2 2 2 2 2 2 2 2 3 3 3 3 3 3 3 3 3 3 3 3 3 3 3 3 3 3 3 3 4 4 4 3 3 3 2 2 3 3 3 3 3 4 5 5 6 7 6 5 6 6 6 6 5 5 6 6 8
2 2 2 2 2 2 2 2 2 2 2 2 2 2 2 2 2 2 2 2 3 2 2 2 2 3 2 2 2 2 2 2 2 2 1 1 1 2 2 2 2 2 2 2 1 1 1 2 3 4 4 4 3 3 4 6 7 7 7 7 7 7 7 7 6 6 6 7 8
2 2 2 2 2 2 2 2 2 1 2 2 2 2 1 1 1 1 2 2 2 1 1 1 1 2 2 2 2 2 2 2 2 2 2 2 2 2 2 2 2 2 1 1 1 0 1 2 3 4 5 4 3 4 5 6 7 7 7 7 7 7 7 7 7 7 8 8 9
2 2 2 2 2 2 2 2 1 1 1 2 1 1 1 1 1 1 1 2 1 1 0 1 1 1 2 2 2 2 2 2 2 2 2 3 3 3 3 3 3 2 2 2 2 2 2 3 3 4 5 5 5 5 5 5 6 7 7 8 8 8 7 7 7 8 8 9 9
2 2 2 2 2 2 2 2 1 1 1 1 1 1 1 1 1 1 1 1 1 0 0 0 1 1 2 2 2 2 2 3 3 3 3 3 3 3 3 3 3 3 3 3 3 4 4 4 4 5 6 6 6 6 6 6 6 6 6 7 8 8 8 7 7 8 8 9 9
2 2 2 2 2 2 2 2 1 1 1 1 1 1 1 1 1 1 1 1 1 0 0 0 1 1 2 2 2 3 3 3 3 3 3 3 3 3 3 3 3 4 4 4 4 5 5 5 5 6 6 7 7 7 7 7 7 7 7 7 8 8 8 8 8 7 7 8 8
3 3 3 3 3 3 3 2 1 1 1 1 1 1 1 1 1 1 1 1 1 0 0 1 1 1 2 2 2 2 3 3 3 3 3 3 3 3 4 4 4 4 4 5 5 6 6 6 6 7 7 8 8 8 8 8 7 8 8 8 8 8 8 8 8 7 7 7 8
3 3 3 4 4 3 3 2 1 1 1 1 1 0 0 1 1 1 1 1 1 0 1 1 1 1 2 2 2 2 2 3 3 3 3 3 3 4 4 4 4 4 4 5 6 6 7 7 7 7 7 8 8 8 8 8 8 8 8 8 8 8 8 8 8 7 7 7 7
3 3 4 4 3 3 2 1 1 1 1 1 1 0 0 0 0 0 0 0 0 1 1 1 2 2 2 2 2 2 3 3 4 4 4 4 4 4 4 4 5 5 5 6 6 6 7 7 7 7 8 8 8 8 8 9 8 8 8 8 8 8 8 8 8 8 7 7 7
3 4 4 3 2 2 2 2 2 2 2 1 1 1 1 1 1 1 1 1 1 1 1 2 2 2 2 2 3 3 3 3 4 4 4 4 5 5 5 5 5 5 5 6 6 6 7 7 7 8 8 8 9 9 9 9 9 9 8 8 7 8 8 8 8 8 8 8 8
3 3 3 2 2 2 2 2 2 2 2 2 2 2 1 1 1 1 1 1 2 2 2 2 2 3 3 3 3 4 4 3 4 4 5 5 5 5 5 5 5 5 5 6 6 6 7 7 7 8 8 9 9 9 9 9 9 9 9 8 7 8 8 8 8 9 9 9 8
3 3 3 3 3 3 3 3 3 3 3 3 2 2 2 2 2 2 2 2 2 2 2 3 3 3 3 3 4 4 4 4 4 4 5 5 5 5 5 5 5 6 6 6 6 6 7 7 8 8 8 8 9 9 9 9 9 9 9 9 8 8 8 8 8 9 9 8 8
3 3 3 3 3 3 3 3 3 3 3 3 2 2 2 3 2 2 2 2 2 3 3 3 3 3 3 4 4 4 4 4 5 5 5 5 5 5 5 5 5 5 5 5 5 6 6 7 7 8 8 8 8 9 9 9 9 9 9 9 9 9 8 8 8 8 8 8 7
4 3 3 3 4 4 4 3 3 3 3 3 3 3 3 3 3 3 3 3 3 3 3 3 3 4 4 4 4 4 5 5 5 5 5 5 5 5 5 5 5 5 4 4 4 5 5 5 6 6 7 7 7 7 8 8 9 9 9 9 9 9 9 9 9 8 8 8 7
4 4 4 4 4 4 4 3 3 4 4 3 3 3 3 3 3 3 3 3 4 4 4 4 4 4 4 4 4 4 4 5 6 6 6 5 5 5 5 4 4 4 4 4 5 6 6 6 6 6 6 6 7 7 7 8 9 9 9 9 9 9 9 10 9 9 8 8 8
5 4 4 4 4 4 4 4 4 4 4 4 3 3 3 3 3 3 3 4 4 4 4 4 4 4 4 4 4 4 4 4 5 5 5 5 5 5 4 4 4 3 4 5 7 8 9 9 8 7 6 6 6 7 7 8 8 8 9 9 9 9 9 9 9 9 9 9 9
5 5 4 4 4 4 4 4 4 4 4 4 4 3 3 3 3 3 3 4 4 4 4 4 4 4 4 4 4 4 4 4 4 5 5 5 5 5 4 4 3 3 4 7 9 10 10 10 10 9 8 6 6 7 7 7 8 8 8 8 8 8 9 9 9 9 8 8 9
5 5 4 4 4 4 4 4 4 5 5 4 4 4 3 3 3 3 3 4 4 3 3 3 3 3 3 3 4 4 4 4 4 4 5 5 5 5 5 4 4 4 6 9 10 10 11 11 11 10 9 7 7 7 7 8 7 7 7 7 7 8 8 8 7 7 7 8 7
5 5 5 4 4 4 4 4 4 5 5 5 4 4 4 3 3 3 4 4 4 3 3 2 2 2 3 3 4 4 4 4 4 4 5 5 5 5 5 5 5 6 8 10 10 11 11 11 11 11 10 8 6 6 6 6 6 6 6 6 6 6 7 6 6 7 7 7 7
5 5 5 5 5 5 4 4 4 4 4 4 4 4 4 4 4 3 3 4 4 3 3 2 2 3 4 4 4 4 4 4 4 4 5 5 6 5 5 5 5 6 8 10 11 11 11 11 11 11 10 9 7 6 6 6 6 6 5 5 6 6 7 7 7 7 7 7 7
5 5 5 5 5 5 5 4 4 4 4 4 5 5 5 4 4 3 3 3 3 3 3 3 3 4 4 4 4 4 4 4 4 4 5 5 6 6 6 6 6 6 8 10 10 11 11 11 11 11 10 9 7 6 6 6 6 5 5 5 6 7 7 7 7 7 7 7 7
5 5 5 5 5 5 5 5 5 5 5 5 5 5 5 5 4 4 3 3 3 4 4 4 4 4 4 4 4 5 5 5 4 4 5 5 5 6 6 6 6 6 8 10 10 11 11 11 11 10 10 9 7 7 6 6 6 6 6 6 7 7 6 5 5 6 7 7 6
5 5 5 5 5 5 5 5 5 5 5 5 5 5 5 5 4 4 4 4 4 4 4 4 4 5 4 4 5 5 5 5 5 5 5 5 5 5 5 5 5 6 8 10 11 11 11 11 11 10 10 9 7 7 7 7 6 6 6 7 7 6 6 5 5 5 5 5 5
5 5 5 6 5 5 5 5 5 5 5 5 5 5 5 5 5 5 5 4 4 4 4 4 4 4 4 4 4 5 5 5 5 5 5 5 5 5 5 4 4 6 8 10 11 11 11 11 11 11 10 9 7 7 7 7 7 7 7 7 7 6 5 5 4 4 4 4 4
5 6 6 6 6 6 5 5 5 5 5 5 5 5 5 5 5 5 5 5 4 4 4 4 4 4 4 4 4 5 5 5 5 5 5 4 4 5 5 5 5 7 9 10 11 11 11 11 11 11 10 8 6 6 7 8 7 8 8 8 7 6 5 5 4 4 4 3 4
6 6 6 6 6 6 6 6 5 5 5 5 5 5 5 5 5 5 5 5 5 5 5 4 4 4 4 4 4 4 5 5 5 5 4 4 4 4 5 5 6 8 10 11 11 11 11 11 11 10 9 7 6 6 6 6 7 7 8 7 7 6 6 5 5 4 4 3 4
6 6 6 6 6 6 6 6 6 6 6 6 6 6 6 5 5 5 5 5 5 5 5 5 5 5 4 4 4 4 4 5 5 5 4 3 4 4 5 6 7 8 9 10 11 11 11 11 10 9 8 6 5 6 6 5 5 6 7 7 7 6 6 5 5 4 4 4 4
6 6 6 6 6 6 6 6 6 6 6 6 6 6 5 5 5 4 4 4 5 5 5 5 4 4 4 4 4 4 4 4 5 5 4 3 3 4 5 6 6 7 8 9 10 10 10 10 9 8 6 5 6 5 5 5 5 5 6 6 5 5 5 4 4 4 4 5 4
6 6 6 6 6 7 6 6 6 6 6 6 6 6 6 5 4 4 4 4 4 5 5 5 5 4 4 4 4 5 5 5 4 4 4 3 3 3 4 6 6 6 7 9 10 10 10 9 8 7 6 5 5 5 4 4 5 5 5 5 5 5 4 4 3 3 4 5 4
6 6 6 6 6 7 7 7 6 6 6 6 6 6 6 5 4 4 4 3 4 4 5 5 5 5 4 4 5 5 5 5 5 4 4 3 3 3 4 5 6 6 7 8 9 9 9 9 8 7 5 4 4 4 4 4 5 5 5 4 4 4 4 4 3 3 4 4 4
5 5 6 6 6 6 6 6 6 6 6 6 6 6 6 5 5 4 4 3 4 4 4 5 5 5 4 4 5 5 6 5 5 5 4 4 4 4 3 4 5 6 7 8 8 9 9 9 8 6 5 3 4 4 3 4 4 5 5 4 4 4 4 4 3 3 3 4 4
Wind_Direction
129 134 137 141 154 175 193 203 218 233 246 255 252 241 232 237 240 236 231 229 241 248 254 256 259 263 264 260 259 259 260 258 256 254 252 252 253 254 253 252 250 249 249 250 251 251 251 249 247 246 244 242 243 243 243 243 241 237 234 230 230 230 228 225 224 220 215 211 206
136 141 146 156 176 193 207 211 213 215 221 234 251 254 253 251 255 252 244 234 239 249 262 268 267 269 272 275 275 276 274 273 272 269 265 260 258 257 256 254 251 249 248 248 249 250 249 247 245 244 242 240 243 244 243 240 239 238 235 231 229 228 226 224 222 217 213 209 203
135 156 181 194 205 212 220 225 224 224 224 225 238 250 256 257 261 263 259 252 258 265 270 270 272 275 280 284 285 284 283 284 284 283 278 273 269 265 262 260 258 254 251 248 247 247 247 247 245 243 241 241 242 243 242 240 237 237 236 232 226 221 218 218 214 209 204 201 200
301 260 248 243 241 241 242 246 245 243 237 232 239 246 251 253 258 264 270 274 270 265 263 270 278 282 283 285 285 285 283 283 285 284 281 278 276 274 271 269 265 260 255 250 248 246 246 245 245 243 241 241 242 242 240 238 233 232 232 230 223 217 213 212 207 201 192 187 188
298 288 284 280 273 270 268 265 264 261 257 250 248 245 245 244 248 257 263 267 261 262 270 280 282 283 283 282 281 279 278 275 272 271 271 271 272 272 271 268 265 262 259 255 249 246 244 243 242 240 238 238 238 238 237 234 230 228 226 223 216 210 204 196 184 169 157 148 140
306 301 296 292 288 285 282 279 276 275 272 266 257 253 250 246 246 250 254 259 268 278 281 276 273 274 276 278 277 276 274 271 265 264 267 271 274 275 273 270 265 261 258 255 250 247 243 239 237 236 236 237 238 237 235 230 227 222 215 201 198 190 176 160 144 134 131 130 127
305 301 298 296 295 291 287 287 286 283 277 267 259 256 256 257 257 259 262 271 280 281 276 268 266 268 271 274 273 272 272 271 272 273 276 279 280 277 273 268 266 262 259 257 254 251 246 241 236 231 227 227 231 231 229 225 217 206 190 171 159 141 137 142 136 134 135 137 136
283 285 289 295 294 290 287 287 286 281 272 264 260 260 261 265 266 268 270 272 269 266 263 262 264 265 266 266 268 271 273 276 279 282 283 281 278 276 274 273 272 269 266 263 259 254 250 246 242 235 228 221 221 222 220 213 196 180 166 154 143 133 129 134 137 139 141 142 139
252 253 259 266 269 270 273 277 274 270 267 264 265 266 267 268 267 266 264 259 257 257 258 261 261 261 261 262 268 274 278 280 280 279 277 274 275 277 278 278 275 273 270 268 264 258 253 249 242 233 222 208 205 203 198 186 171 161 152 142 136 128 122 122 133 138 139 139 136
245 238 233 233 232 235 240 245 248 253 258 261 262 262 261 259 257 255 254 254 254 255 256 260 261 261 261 264 271 276 278 277 275 273 272 273 274 276 278 278 274 272 270 269 265 260 253 242 218 203 197 192 187 180 170 161 153 147 142 133 130 125 120 114 120 125 127 127 125
250 240 231 228 215 213 218 221 223 232 241 247 245 243 241 237 240 244 249 254 252 253 258 269 272 270 269 270 276 280 280 276 271 269 272 282 284 287 290 290 283 276 270 267 262 255 240 205 187 177 169 161 161 156 152 148 144 140 136 130 129 125 121 114 112 112 113 113 113
246 239 233 227 213 214 219 224 218 219 223 229 227 230 234 237 241 247 250 251 249 254 268 291 295 297 298 296 301 301 299 296 291 285 284 296 313 320 325 325 314 303 291 283 268 240 202 179 169 158 149 141 138 138 139 141 139 135 133 130 128 125 122 119 117 115 114 113 111
240 234 229 217 213 219 228 234 227 218 214 218 222 227 237 260 268 270 263 253 250 255 282 311 327 335 337 332 335 336 334 334 337 339 346 350 353 357 359 360 357 356 355 348 344 199 169 158 150 143 137 129 121 122 128 134 134 133 132 131 127 124 122 122 122 120 119 116 115
232 232 229 219 215 222 228 230 227 222 218 219 225 236 252 262 278 279 269 253 250 246 275 323 355 4 3 359 1 4 9 13 13 16 17 19 16 14 14 14 15 18 23 31 45 67 97 117 122 123 120 114 108 108 112 119 125 128 129 129 126 122 120 119 120 120 121 120 119
227 228 226 225 220 221 224 221 222 221 225 227 229 240 249 253 266 275 274 264 260 261 300 7 32 30 27 21 25 29 34 36 35 35 34 34 32 30 28 28 30 34 40 49 58 66 73 87 96 102 105 105 102 99 98 100 107 113 117 120 119 118 117 116 116 118 120 123 122
224 221 219 223 221 222 223 218 214 217 223 229 235 244 256 270 282 289 290 285 284 298 356 39 46 42 39 35 38 44 49 50 48 47 45 45 45 44 42 42 44 47 54 62 68 70 71 75 84 91 95 98 96 94 92 92 95 99 102 107 110 112 113 114 113 115 118 122 123
217 212 213 217 219 222 224 219 218 216 218 221 230 252 277 297 301 307 308 306 304 318 54 65 64 56 51 45 48 54 58 60 58 56 54 54 57 57 54 52 55 60 66 72 75 76 77 76 80 84 88 92 92 91 90 89 90 93 96 100 103 107 109 110 111 112 114 116 118
210 207 209 218 218 221 221 213 211 210 205 202 214 244 284 299 304 312 322 328 322 34 100 90 81 76 73 69 67 66 67 71 70 68 64 63 64 64 62 60 61 66 72 77 80 82 83 83 83 85 87 89 91 91 90 89 90 91 92 95 98 101 104 105 106 108 108 109 111
205 204 209 217 217 213 203 177 181 181 178 166 167 175 205 219 217 188 110 38 69 106 109 100 92 89 87 87 84 81 78 78 79 77 74 71 70 69 68 66 67 70 74 80 82 84 86 88 89 90 91 92 92 92 91 90 90 90 89 89 92 94 97 100 102 103 104 104 104
204 205 209 209 202 189 174 161 167 166 159 149 141 139 136 140 138 133 123 106 105 110 113 109 104 100 96 94 91 88 84 81 83 82 80 75 73 73 75 75 76 77 79 82 85 87 89 91 93 94 95 96 95 95 94 92 91 89 88 86 86 88 91 94 97 99 100 101 101
205 204 201 187 174 168 166 162 165 159 147 131 127 122 120 118 112 110 105 101 103 108 111 109 107 105 103 99 96 92 88 85 86 86 84 79 76 76 77 80 81 82 83 85 87 90 92 94 95 97 97 97 97 97 96 94 92 90 88 86 86 86 87 90 92 95 96 98 99
195 189 180 167 163 161 161 161 159 150 138 126 125 123 120 113 106 101 100 100 102 102 102 100 99 100 102 102 100 97 93 88 86 85 84 82 79 77 76 77 80 83 86 88 90 92 94 95 96 97 98 98 98 98 98 98 96 94 93 92 91 90 88 88 89 90 92 94 97
174 169 163 161 159 158 159 161 152 143 131 124 126 124 121 114 109 105 104 105 104 105 104 99 96 97 98 101 102 102 100 96 90 86 84 84 83 80 77 76 77 80 84 89 94 96 97 97 97 97 98 99 100 101 102 102 101 101 101 100 98 95 93 91 91 91 93 95 96
161 159 160 161 159 160 160 160 149 139 132 129 128 124 119 113 112 113 113 115 111 108 106 103 100 98 98 99 103 106 107 105 100 95 92 90 90 88 85 79 76 76 78 85 95 101 104 104 102 100 100 100 101 101 102 103 105 106 106 106 104 102 99 98 97 98 100 103 104
159 162 163 161 160 159 158 153 145 138 132 131 129 125 121 118 120 122 124 122 116 112 110 108 106 103 100 98 102 106 108 107 104 102 100 97 95 93 91 85 82 81 84 90 100 104 107 108 108 106 104 103 103 102 102 103 106 109 111 112 111 110 108 106 105 105 106 106 106
164 165 163 159 160 159 156 151 145 138 132 129 129 126 123 121 126 129 129 123 120 119 118 116 114 111 108 106 106 105 104 104 105 106 107 105 100 96 93 90 92 94 101 107 109 109 108 108 109 110 110 110 109 108 107 106 109 112 115 116 116 115 113 112 111 110 109 109 108
166 164 161 160 163 161 158 153 146 139 134 132 130 126 124 123 129 130 128 123 125 126 125 122 121 119 118 116 114 111 108 106 110 112 113 111 106 102 99 97 102 109 116 119 117 114 113 112 112 113 113 113 113 113 113 112 114 114 115 116 115 115 115 114 114 113 113 112 112
164 161 159 161 162 159 155 151 147 142 138 134 131 127 124 124 129 131 131 131 129 126 123 123 125 127 125 121 120 117 116 115 113 113 111 110 107 106 105 107 112 118 123 124 121 119 118 117 117 117 116 114 113 113 113 115 115 116 116 115 115 116 116 117 117 117 116 115 113
161 158 158 159 157 155 153 153 149 143 138 134 132 129 127 126 130 133 135 136 132 130 129 133 138 136 130 126 123 119 115 112 111 109 109 109 109 109 110 114 118 122 124 125 123 122 122 122 121 120 119 118 117 116 116 116 117 117 118 117 119 121 121 122 122 123 123 123 122
159 159 160 160 158 156 154 152 146 141 138 138 139 138 137 135 135 137 139 139 136 138 142 150 150 140 132 128 124 119 113 110 111 112 114 113 112 113 115 119 122 125 127 127 125 125 124 124 124 122 120 119 117 116 115 116 118 119 120 122 125 125 126 126 128 130 131 132 132
163 163 163 162 159 156 152 149 146 146 147 148 149 148 147 143 139 138 137 135 134 139 144 148 142 134 128 125 122 119 117 116 115 115 115 115 115 117 119 121 123 125 128 129 128 127 127 126 125 123 121 119 117 116 117 118 119 120 122 125 128 129 129 129 133 136 138 138 138
165 165 164 161 157 153 150 149 150 152 152 151 152 151 148 144 142 140 138 135 137 141 144 142 135 128 124 121 120 120 119 118 115 112 111 112 115 116 118 119 121 125 128 131 129 129 129 127 125 123 120 117 114 114 114 115 114 113 114 115 119 122 126 132 136 139 140 140 139
164 164 162 159 155 153 153 154 156 156 154 152 152 150 148 144 145 143 142 140 143 145 143 138 131 125 121 120 120 119 118 115 113 112 112 113 115 116 117 116 118 125 129 131 130 130 129 127 125 122 117 113 110 111 113 113 112 112 113 114 117 121 126 132 131 132 132 134 136
163 163 162 159 157 157 157 159 160 159 157 154 152 150 150 149 150 148 146 145 145 142 138 132 126 121 118 117 117 118 116 115 115 115 116 116 117 118 118 117 119 127 130 131 130 129 128 126 123 120 115 111 109 111 114 115 116 117 119 120 120 120 119 117 112 110 113 120 126
164 165 163 161 161 161 162 162 163 161 158 154 152 152 153 154 153 150 146 143 140 136 132 126 121 117 116 115 116 118 119 118 116 115 114 114 116 117 118 118 121 127 129 129 127 126 125 124 122 120 118 115 114 115 117 117 117 119 120 120 116 111 105 98 93 90 92 100 113
167 167 166 165 164 164 164 164 163 161 158 155 154 155 156 156 153 148 143 139 136 133 129 125 122 120 118 117 117 118 119 121 120 116 114 113 117 119 120 121 123 125 127 125 124 123 123 123 124 124 123 122 119 118 117 116 116 117 118 116 112 107 102 96 93 89 88 91 103
172 171 169 168 167 166 166 166 165 163 161 160 159 158 157 153 149 144 140 138 135 133 130 127 125 123 121 118 115 115 117 121 122 120 117 117 121 124 123 122 121 122 122 122 121 121 122 124 127 128 128 124 121 119 117 116 116 116 115 112 109 106 104 101 100 98 95 92 88
176 175 173 171 169 169 169 170 169 168 165 163 161 159 155 150 146 145 144 143 140 137 133 129 126 124 121 118 114 112 111 111 113 115 116 118 121 123 123 122 119 118 119 120 121 123 126 128 131 131 130 124 122 120 119 119 119 119 117 114 111 108 107 106 106 104 101 93 78
179 178 175 173 171 170 172 174 173 171 167 163 160 157 154 149 146 146 147 147 144 139 135 129 127 124 121 116 112 106 100 92 93 99 106 110 104 110 117 122 118 118 119 122 124 127 130 132 133 132 129 123 122 121 121 121 122 123 122 120 119 117 116 113 113 111 106 99 84
181 179 177 175 173 173 174 176 175 172 167 164 161 157 154 149 145 143 143 142 139 135 131 128 127 124 120 115 109 100 90 75 65 66 71 75 68 77 98 121 122 123 124 127 130 133 135 137 137 135 131 124 122 122 123 124 127 128 129 130 130 129 127 126 126 123 120 116 112
181 179 178 177 175 175 176 177 175 172 168 164 161 157 152 147 143 141 140 139 135 131 128 128 128 126 120 114 109 101 92 76 57 46 43 45 46 51 68 106 124 130 132 134 137 140 141 143 142 140 136 126 125 125 127 131 133 135 136 137 136 136 136 137 138 136 134 131 128